Weather in Memmingen

Germany     47°59′09″N   10°10′34″E
temp.,
°C
wind,
m/s
gust,
m/s
humid.,
%
clouds,
%
prec.,
mm/h
press.,
hPa
HPBL,
m
28 september, tue
tue2823:00+14sw259295 0.0 1022103
02:00+12ssw239520 0.0 102346
05:00+11sw229670 0.0 102322
08:00+10wnw009741 0.0 102412
11:00+13nne3496100 0.0 1024344
14:00+14ne3490100 0.1 1022506
17:00+15ne3687100 0.1 1020659
20:00+13nne3795100 0.1 1020273
29 september, wed
wed2923:00+12nne1297100 0.1 102053
02:00+13wsw3799100 3.4 1019490
05:00+10wsw4897100 5.2 1021406
08:00+11sw51096100 6.4 1021505
11:00+13sw598447 0.0 1022623
14:00+15wsw596895 0.1 10221565
17:00+15wsw596711 0.1 10221045
20:00+11w399194 0.6 1024321
30 september, thu
thu3023:00+9w2697100 0.7 1027338
02:00+8wsw3794100 0.8 1029358
05:00+7wsw249494 0.1 1030145
08:00+4w1193100 0.1 103215
11:00+9wnw12665 0.0 1031498
14:00+12nnw235144 0.0 10281127
17:00+11nne326056 0.0 1027457
20:00+6e1174100 0.0 102810
1 october, fri
fri123:00+5ese228289 0.0 102911
02:00+4sse229498 0.0 102819
05:00+4ssw119371 0.0 102610
08:00+5s229055 0.0 102517
11:00+12ese1166100 0.0 1023329
14:00+17wnw125791 0.0 1020732
17:00+16wnw2473100 0.0 1019324
20:00+9ssw3390100 0.0 102137
2 october, sat
sat223:00+9ssw3480100 0.0 102065
02:00+9ssw3584100 0.0 101979
05:00+9ssw3989100 0.0 1018165
08:00+9ssw3885100 0.0 1018166
11:00+15sw3665100 0.0 1017431
14:00+17w4760100 0.0 1016900
17:00+14w1276100 0.0 101598
20:00+11s1178100 0.0 101510